Location: Ku?niki
(51.4449°N, 17.8974°E)
Time: 01:38:14
(UTC+00:00)

First-Move - Pass Details

Date: 27 June 2022
Orbit: 572 x 658 km, 97.6° (Epoch: 07 August)

Event Time Altitude Azimuth Distance (km) Brightness Sun altitude
Rises 01:38:44 0° 28° (NNE) 2,920 ? -6.7°
Reaches altitude 10° 01:41:49 10° 52° (NE) 2,025 ? -6.4°
Maximum altitude 01:44:22 15° 88° (E) 1,720 ? -6.2°
Drops below altitude 10° 01:46:57 10° 124° (ESE) 2,042 ? -5.9°
Sets 01:50:04 0° 147° (SSE) 2,959 ? -5.6°
